Helicity
287 197 219 156 209 285 306 278 268 176 232 274 222 225 141 132 141 142 110 71 54 81 37 8 50 101 120 161 213 279 271 243 205 256 263 258 242 234 237 210 190 188 172 146
282 286 232 204 166 163 180 253 224 226 205 133 125 172 185 101 80 73 76 30 12 -21 -43 -36 4 83 183 208 230 284 281 269 285 291 295 265 247 266 259 236 247 228 199 182
288 277 269 225 200 271 266 239 185 183 122 149 141 106 96 74 3 -74 -95 -84 -31 -44 -50 -14 44 148 187 240 310 310 332 321 320 327 294 289 291 287 265 266 285 240 234 228
305 370 334 259 260 224 244 278 224 263 191 166 132 100 107 114 103 108 95 98 102 113 133 155 135 149 219 223 234 251 263 274 269 313 301 301 342 305 281 318 281 281 264 247
310 310 254 226 235 251 198 144 166 163 160 175 149 170 133 212 204 176 163 172 163 170 175 178 178 178 138 177 202 230 220 245 268 273 268 312 294 304 339 342 310 281 292 258
325 302 237 100 113 256 208 74 64 167 141 151 202 193 166 196 235 242 223 177 180 197 181 192 208 171 127 120 141 134 147 176 223 248 245 276 274 283 348 321 275 286 272 264
311 325 249 206 201 215 145 195 170 182 174 158 174 178 212 241 242 174 158 181 137 134 141 137 106 89 75 76 83 71 75 108 140 156 166 199 248 298 285 276 287 304 278 275
359 344 232 380 276 203 362 422 405 411 321 303 318 343 306 278 257 243 217 185 183 148 120 112 161 107 69 79 91 107 117 123 128 133 148 157 174 227 252 270 301 312 289 305
278 354 476 437 424 467 468 353 393 375 435 395 366 381 369 332 289 266 255 242 213 163 154 192 178 85 50 92 96 93 106 122 136 150 148 146 164 175 227 229 235 240 231 239
349 341 343 374 410 485 502 493 495 484 439 473 436 460 424 375 320 300 254 240 225 210 201 182 128 103 97 104 91 81 82 99 132 150 171 177 171 159 180 188 200 195 204 231
411 394 337 401 442 451 449 499 549 544 533 533 500 490 483 442 428 392 314 291 257 215 192 184 172 176 175 160 113 105 105 113 128 131 131 146 171 173 186 185 169 179 191 214
466 524 469 422 435 464 439 478 509 508 521 523 523 529 530 501 479 425 386 365 319 284 246 236 237 223 212 197 161 146 152 152 148 157 166 174 186 205 169 166 204 196 165 198
466 493 404 390 384 454 432 479 486 480 485 468 487 488 486 495 502 472 404 367 348 285 213 193 195 209 232 232 198 155 136 143 147 151 171 176 214 234 229 258 260 258 274 248
512 485 382 487 433 451 447 474 473 409 415 419 444 430 403 379 354 342 310 277 254 221 170 184 187 186 188 193 201 206 165 124 172 169 188 228 221 222 247 276 292 327 353 345
520 400 334 336 340 360 313 304 328 324 314 294 240 250 243 280 304 313 291 247 215 200 236 227 216 174 169 211 233 239 240 281 258 261 276 267 265 278 274 254 246 253 263 277
351 265 327 302 288 257 266 291 291 346 372 384 389 385 386 349 286 254 237 212 238 264 272 251 207 175 209 234 227 224 236 179 212 248 256 253 255 248 254 250 252 260 252 261
450 482 497 498 484 477 430 368 357 396 412 411 409 364 330 273 229 195 197 181 169 199 210 216 222 169 152 164 192 184 196 219 167 191 209 214 219 211 217 234 252 266 281 283
257 279 280 307 362 392 391 331 298 313 328 273 212 183 188 201 213 250 213 185 189 214 174 156 149 144 136 139 150 178 190 208 236 207 205 206 205 217 226 237 249 257 261 257
259 281 255 244 234 245 259 277 254 215 196 176 192 208 219 229 217 201 204 183 186 202 238 160 111 154 169 150 150 184 201 206 216 224 220 191 216 221 227 238 246 235 223 221
237 159 139 153 134 144 192 166 173 184 165 151 149 180 206 209 199 193 182 192 179 169 129 143 159 165 155 160 156 198 192 192 201 215 225 223 232 239 244 217 212 211 208 209
-15 -7 61 71 92 76 79 99 131 157 159 157 169 186 181 173 171 159 166 186 189 144 141 109 136 179 145 124 133 196 190 198 207 215 224 236 231 221 217 204 199 194 189 177
-236 -183 -135 -76 -18 43 48 70 98 121 138 147 146 145 145 142 135 138 115 125 151 138 134 139 145 124 136 95 156 167 171 181 201 210 208 194 192 193 187 178 171 154 140 126
-197 -163 -122 -81 -33 15 62 91 137 158 162 163 161 164 168 167 156 157 174 147 130 127 143 149 114 88 85 127 171 181 172 171 184 179 167 166 162 154 150 146 129 112 104 102
-39 -41 -38 -16 40 76 121 187 219 235 244 236 214 190 180 173 151 135 128 75 78 99 135 140 114 83 69 112 141 177 182 167 154 147 138 104 137 125 124 107 91 86 94 93
36 22 17 8 17 78 134 178 213 218 224 222 217 208 184 172 153 173 162 138 89 107 131 131 125 105 137 151 159 131 127 143 164 169 156 134 117 98 87 87 98 116 115 126
85 67 67 52 49 64 105 156 197 261 273 259 229 207 196 182 178 128 142 102 114 94 107 115 129 126 106 66 75 110 120 116 110 105 94 100 98 94 103 113 128 139 149 155
86 80 80 78 52 56 62 104 179 203 204 178 181 186 195 177 153 119 94 118 120 111 109 119 120 107 94 72 67 74 87 90 72 85 82 80 83 99 116 134 139 140 149 161
Wind_Speed
61 54 54 59 59 59 70 69 73 81 75 59 43 42 34 29 26 27 27 30 35 41 43 46 49 51 51 51 48 45 45 44 42 42 41 41 41 40 38 36 35 33 32 32
69 60 59 69 61 56 61 71 85 85 82 57 64 63 52 48 46 49 54 56 57 60 63 63 63 64 62 59 54 50 50 49 49 47 47 48 48 48 47 46 43 40 39 38
73 59 65 92 80 65 62 62 64 79 72 69 70 65 69 80 85 84 79 75 78 78 78 77 74 69 67 64 58 56 56 54 53 54 56 55 54 55 55 53 50 48 48 47
72 60 95 73 56 52 68 75 70 78 73 68 72 78 80 75 79 84 85 86 82 80 79 77 75 71 67 62 59 58 58 58 57 57 59 61 62 63 62 60 58 58 58 55
79 84 92 90 65 63 71 93 74 79 79 77 75 78 85 69 70 72 73 73 74 72 71 70 69 67 60 58 57 57 58 58 58 58 59 59 60 63 64 63 63 63 62 59
70 87 104 94 67 63 69 132 77 77 84 81 71 98 88 63 61 60 59 60 61 59 57 58 61 59 54 54 53 55 55 54 51 51 54 58 58 59 60 61 64 63 64 62
85 90 92 76 63 47 83 92 60 60 62 59 66 69 53 47 47 46 45 46 46 47 50 52 53 49 47 48 51 54 51 49 49 50 53 55 56 56 58 60 62 64 66 66
84 93 111 67 61 79 80 68 61 58 57 55 49 46 45 44 44 45 50 52 51 51 53 53 51 46 48 50 51 50 47 45 46 48 49 49 51 52 54 56 60 64 67 70
77 87 64 60 59 59 62 56 60 59 57 50 49 49 48 48 49 51 51 50 49 47 49 51 51 49 52 53 51 50 48 47 46 46 48 49 51 52 55 58 63 68 71 74
73 71 64 59 55 56 57 57 57 54 54 53 56 54 55 53 52 53 53 54 54 52 52 53 53 53 52 52 50 49 49 49 49 49 49 49 50 50 53 57 60 63 65 67
69 61 53 55 56 58 55 54 55 54 55 57 56 58 59 59 60 61 57 58 58 58 57 58 57 58 57 55 53 54 53 53 53 54 54 55 53 54 57 55 56 60 61 61
71 61 64 59 55 55 56 59 60 61 60 56 56 61 61 62 62 63 63 62 62 62 63 63 63 63 62 59 58 58 60 59 58 57 58 58 58 58 52 53 55 57 57 59
62 60 53 57 50 56 58 61 61 60 60 63 60 61 62 64 65 67 67 67 68 69 67 65 65 66 64 63 61 60 61 60 60 60 60 60 60 61 63 56 54 56 56 57
55 54 54 54 61 60 61 63 64 60 60 62 64 64 65 68 67 68 70 71 69 68 67 67 66 66 64 63 62 62 60 59 59 59 60 60 61 61 59 60 62 60 58 57
57 51 51 55 55 59 60 63 65 67 69 70 69 70 71 76 77 77 74 72 73 71 70 69 70 70 65 65 64 64 63 62 62 63 62 63 62 63 65 66 66 66 64 63
56 53 58 60 62 65 68 70 72 76 76 78 79 79 79 79 79 77 75 73 78 83 77 74 73 68 66 66 65 64 63 63 64 65 65 65 65 66 66 66 66 65 65 65
61 66 70 72 72 74 75 75 76 79 80 81 82 82 82 83 83 82 83 78 78 79 77 76 75 67 66 65 65 64 65 66 63 62 63 64 66 67 68 69 74 71 70 67
60 65 69 74 79 81 82 80 80 80 82 81 81 81 82 83 85 85 84 82 81 83 81 78 74 71 70 68 67 69 69 69 69 68 66 67 69 68 70 73 74 75 74 70
73 77 80 82 83 85 87 89 88 86 86 86 87 89 88 89 89 88 87 87 88 90 86 79 76 77 74 72 70 70 72 72 72 72 70 70 71 70 71 72 73 73 72 71
89 87 89 90 88 89 92 90 91 92 89 89 91 93 95 94 92 93 92 94 90 88 82 81 77 77 73 71 71 68 72 72 71 70 70 71 71 72 71 71 69 68 67 65
93 94 99 99 99 94 92 92 94 96 93 91 94 96 96 94 92 91 92 94 84 79 79 76 74 73 71 69 67 67 65 66 67 67 68 69 69 67 65 63 63 63 64 64
98 103 103 102 103 103 95 94 94 96 96 95 93 92 91 91 89 88 83 86 82 80 76 72 70 69 67 66 64 65 65 64 63 63 63 62 61 59 59 58 59 61 63 66
98 100 101 102 104 105 101 98 97 96 96 93 90 88 86 85 82 86 91 75 73 72 71 69 69 69 69 68 65 64 63 61 60 60 60 56 56 56 57 58 61 63 66 69
94 94 96 97 98 99 104 103 99 95 93 92 88 84 83 83 80 71 72 73 73 72 71 68 67 67 66 65 62 61 61 60 59 59 56 57 56 57 60 64 67 69 69 72
92 94 95 95 95 95 96 94 92 90 88 86 82 79 75 71 72 73 69 68 69 68 64 63 64 64 63 57 58 58 58 57 56 56 59 62 64 63 64 66 69 73 75 75
92 93 93 92 91 90 87 83 84 81 78 77 74 70 69 68 67 67 66 65 64 63 62 62 61 60 62 62 61 58 56 57 60 65 67 68 67 67 68 70 72 73 73 73
83 87 86 87 81 84 81 81 81 77 73 71 73 70 65 64 64 64 62 60 60 60 59 58 56 56 57 61 61 59 57 63 67 67 66 68 68 69 69 70 71 71 71 72
Wind_Direction
268 271 268 270 265 251 250 255 263 272 264 271 280 283 288 296 298 296 294 293 294 295 295 295 295 294 291 287 283 278 272 270 265 266 262 258 254 253 257 258 264 270 275 281
264 268 270 269 268 263 258 262 265 270 272 278 276 278 283 284 288 288 288 290 291 293 293 294 295 293 291 287 283 278 273 268 270 267 263 258 257 256 257 260 263 266 270 274
268 270 271 267 264 263 267 265 266 265 269 275 276 278 280 279 283 285 288 292 293 295 296 295 294 293 291 289 286 280 277 274 271 268 265 261 259 258 257 258 261 263 268 272
269 269 264 275 280 269 266 269 264 273 276 277 279 281 281 284 284 286 289 291 293 295 297 298 298 294 291 289 286 282 280 277 275 272 268 266 262 260 261 261 260 264 268 272
266 266 272 272 275 273 273 273 273 273 276 278 282 285 283 288 291 290 292 294 295 298 299 299 301 301 296 292 288 285 282 279 276 273 272 269 264 262 262 262 263 265 269 270
267 268 267 276 275 276 283 272 278 276 278 279 283 280 284 291 292 294 297 299 301 304 306 307 305 304 301 298 296 292 287 284 281 277 274 271 270 267 267 265 265 267 269 271
263 268 273 274 279 285 273 280 291 288 287 284 280 285 292 294 297 301 304 308 310 313 312 313 313 312 309 307 304 302 298 293 287 282 279 276 275 272 271 269 270 270 271 274
265 266 268 282 280 268 281 286 286 290 292 289 289 292 295 297 298 299 302 304 305 305 307 313 315 316 313 311 310 309 308 303 296 290 287 285 281 279 276 274 272 273 275 278
266 269 279 287 281 286 289 284 287 287 290 291 288 291 296 298 299 300 301 302 304 306 308 310 312 313 310 309 310 309 309 308 305 300 295 291 287 284 281 279 278 278 278 280
267 271 275 281 285 289 291 288 291 294 294 294 288 293 295 297 298 300 300 300 301 302 303 306 308 310 311 310 310 309 307 306 304 302 301 299 296 292 287 284 283 282 282 283
267 272 276 280 286 289 291 293 293 295 295 293 293 293 296 296 298 299 299 300 300 300 300 301 304 305 307 309 307 305 305 304 304 302 299 297 297 294 292 293 290 288 287 287
269 277 276 279 288 293 290 291 293 292 291 295 296 293 295 295 298 299 300 302 301 300 299 300 301 302 303 305 303 302 302 302 302 301 300 299 297 296 299 297 297 295 294 292
278 288 284 285 290 296 293 294 295 294 293 291 295 296 296 295 297 299 300 300 300 300 300 300 300 300 304 305 304 301 300 300 301 301 299 298 297 295 294 297 299 297 297 297
294 289 280 291 286 295 295 296 296 295 296 294 295 296 296 296 297 298 298 299 299 299 299 300 300 301 304 305 304 302 301 300 300 300 299 298 297 296 295 294 293 295 298 298
295 294 290 291 293 295 298 298 295 294 295 294 296 295 295 295 295 296 298 299 299 298 299 299 298 299 302 304 302 301 301 300 300 299 298 298 297 296 295 294 293 293 294 296
295 291 295 293 295 296 295 294 292 293 294 294 294 294 295 295 295 298 299 298 296 295 298 299 298 299 301 301 301 300 299 298 298 298 297 297 297 296 296 296 296 296 295 295
295 293 295 295 296 295 293 293 293 293 294 294 295 296 295 295 295 295 295 296 296 296 297 297 298 299 300 299 299 298 298 298 297 298 296 297 296 295 295 295 293 294 294 295
298 296 296 295 294 293 293 293 294 294 293 294 295 295 295 295 294 294 295 296 296 296 296 295 295 296 296 296 296 295 295 294 295 295 296 295 294 294 294 293 293 293 294 295
299 297 297 296 295 293 292 292 292 292 293 293 293 292 293 292 292 293 294 293 293 293 294 295 292 291 291 293 292 292 292 292 293 293 294 294 294 294 293 293 293 293 293 293
297 297 296 296 296 294 293 294 293 292 293 292 292 292 291 292 293 292 292 291 291 291 293 293 293 293 292 292 292 290 290 291 291 292 293 293 293 293 293 293 293 293 293 293
297 298 297 296 295 296 294 294 293 292 293 293 292 291 291 292 293 293 292 291 294 295 294 293 292 292 292 292 291 292 291 291 291 292 293 293 293 293 293 293 293 293 293 294
299 298 297 296 294 293 294 293 292 291 291 291 291 291 291 291 292 292 292 291 294 295 293 293 294 294 293 291 291 291 291 291 291 293 293 294 293 293 294 294 294 294 294 294
300 299 298 297 295 293 294 293 292 291 290 290 290 290 290 291 293 292 292 295 293 292 293 293 293 292 291 290 289 288 289 290 291 292 293 292 292 292 293 294 295 295 295 295
302 302 301 300 297 295 293 293 291 290 288 288 288 288 289 290 292 294 295 295 295 293 292 292 292 293 292 290 289 287 288 287 288 290 291 291 291 292 293 294 294 294 295 296
303 303 303 303 300 297 296 294 292 291 289 287 287 287 288 289 288 294 295 296 296 295 294 294 293 292 294 295 290 290 289 288 287 288 288 287 289 292 293 293 293 294 295 296
302 302 302 303 301 300 298 296 293 291 290 289 288 288 289 290 291 292 294 295 296 295 293 293 293 292 292 291 290 291 290 289 286 284 285 287 289 291 293 294 295 297 298 299
304 304 303 304 304 302 299 296 293 291 291 289 288 289 289 291 292 293 293 295 296 296 295 293 293 293 291 289 289 289 289 285 283 284 286 287 290 292 295 297 298 300 301 303